Location: Newark
(30.0333°N, 31.2167°E)
Time: 05:54:11
(UTC+00:00)

Envisat - Visible Passes

Search period start: 18 October 2019 00:00
Search period end: 28 October 2019 00:00
Orbit: 764 x 766 km, 98.1° (Epoch: 17 October)

Date Brightness Start Highest point End Pass type
(mag) Time Alt. Az. Time Alt. Az. Time Alt. Az.
18 Oct 5.3 17:01:31 10° SSW 17:05:37 25° W 17:09:46 10° NW visible
19 Oct 3.5 16:23:46 10° S 16:28:46 63° W 16:33:48 10° NNW visible
20 Oct 3.1 15:47:11 10° SSE 15:52:05 52° ENE 15:56:59 10° N visible
20 Oct 6.1 17:29:03 10° WSW 17:31:17 13° W 17:33:33 10° WNW visible
21 Oct 4.8 16:49:48 10° SSW 16:54:19 32° W 16:58:51 10° NW visible
22 Oct 6.7 03:28:21 10° ENE 03:29:50 11° E 03:31:19 10° ESE visible
22 Oct 3.1 16:12:27 10° S 16:17:31 83° W 16:22:36 10° NNW visible
23 Oct 3.4 15:36:11 10° SE 15:40:52 39° ENE 15:45:34 10° N visible
23 Oct 5.8 17:16:41 10° SW 17:19:57 17° W 17:23:14 10° NW visible
24 Oct 4.2 16:38:15 10° S 16:43:02 43° W 16:47:49 10° NNW visible
25 Oct 2.9 16:01:13 10° SSE 16:06:16 76° ENE 16:11:20 10° N visible
26 Oct 5.4 17:04:42 10° SSW 17:08:37 23° W 17:12:34 10° NW visible
27 Oct 6.2 03:40:57 10° NE 03:44:11 17° E 03:47:25 10° SE visible
27 Oct 3.7 16:26:47 10° S 16:31:44 56° W 16:36:44 10° NNW visible
